Location: Beutels
(47.8767°N, 9.8584°E)
Time: 20:16:52
(UTC+00:00)

ERS-1 Rocket - Pass Details

Date: 19 May 2025
Orbit: 747 x 752 km, 98.2° (Epoch: 15 June)

Event Time Altitude Azimuth Distance (km) Brightness Sun altitude
Exits shadow 20:04:50 - 169° (S) 2,536 5.2 -9.7°
Reaches altitude 10° 20:05:30 10° 170° (S) 2,270 5.0 -9.8°
Maximum altitude 20:10:30 78° 256° (WSW) 776 3.1 -10.3°
Drops below altitude 10° 20:15:33 10° 344° (NNW) 2,287 6.6 -10.9°
Sets 20:17:51 0° 346° (NNW) 3,216 7.4 -11.2°
